Theta_e
326 326 325 326 325 324 324 323 323 322 322 321 321 322 322 321 321 321 321 320 320 319 319 319 321 322 326 325 323 329 345 338 324 322 321 328 327 324 319 325 329 329 330 333 334 332 330
326 326 326 325 325 324 324 323 322 322 322 321 321 321 322 321 321 321 321 319 319 319 319 320 322 322 328 320 332 326 322 324 322 320 320 326 327 324 321 325 327 332 332 332 333 332 330
326 325 325 325 324 324 323 323 323 322 321 321 321 320 321 321 320 320 319 318 318 318 319 320 323 327 326 322 331 331 325 322 322 321 319 328 326 321 325 327 334 333 328 330 331 332 326
326 325 325 325 324 323 323 323 323 322 321 321 320 320 321 321 320 319 317 316 317 319 319 321 324 329 322 328 331 325 325 323 323 323 322 327 326 321 326 334 331 326 326 317 330 330 330
326 325 325 325 324 323 323 323 323 322 321 321 320 320 320 320 319 317 316 317 321 321 322 324 329 329 321 329 323 324 322 319 321 321 322 323 320 320 328 325 322 324 313 317 323 331 329
326 325 324 324 324 322 322 322 322 322 322 321 320 319 319 319 317 315 315 318 321 323 326 330 330 322 321 318 322 321 321 320 318 318 318 318 318 317 320 319 306 308 316 317 318 327 328
326 325 325 324 323 322 322 322 322 322 322 321 320 319 319 318 316 314 316 328 326 324 328 321 321 320 320 321 322 319 319 318 316 315 312 316 312 311 316 319 319 320 314 314 321 328 325
325 325 324 323 323 322 322 321 321 321 321 321 320 319 318 316 315 314 318 321 321 320 315 322 321 321 322 321 314 318 321 314 312 308 313 311 307 314 318 317 318 317 315 312 318 326 326
324 324 323 322 322 322 321 321 321 321 320 320 320 319 317 315 313 316 323 322 326 325 316 319 320 319 320 321 315 316 319 316 311 309 310 308 310 314 312 312 314 315 313 312 311 319 325
322 322 322 321 321 321 321 321 320 320 320 319 319 318 316 311 315 326 319 326 326 325 311 314 316 318 321 320 315 321 320 316 311 308 310 309 312 309 310 309 312 310 316 314 312 314 308
320 320 321 320 320 320 320 320 319 319 319 318 318 317 314 311 322 322 323 325 325 323 301 316 316 325 321 317 318 315 321 316 309 308 309 307 307 307 306 308 313 311 317 313 312 312 312
320 320 320 319 319 319 319 319 319 319 319 318 317 315 312 319 324 327 327 325 322 308 300 312 316 315 315 316 315 316 315 318 316 310 310 309 313 310 309 310 311 314 314 314 314 312 306
319 319 319 318 318 318 319 319 319 318 317 316 314 311 312 322 324 327 325 319 306 301 314 311 312 314 313 312 313 312 310 309 307 303 305 307 309 312 312 308 310 311 310 304 303 303 304
318 318 318 318 318 318 319 320 319 318 316 314 311 309 316 322 328 326 321 311 301 307 309 315 315 314 310 313 312 312 311 308 311 310 307 304 301 309 312 309 307 308 310 304 299 300 304
316 317 317 317 317 318 319 319 318 317 315 312 309 326 324 327 327 325 314 303 306 310 311 310 313 310 310 312 312 312 311 310 312 311 306 305 305 312 312 313 314 308 307 313 307 310 306
317 316 317 317 317 317 318 318 318 316 314 311 319 322 323 325 326 321 310 302 310 314 312 312 309 311 308 310 310 311 311 313 312 313 314 311 305 311 311 313 314 314 315 306 308 301 300
317 317 317 317 317 317 317 318 317 315 312 311 320 317 323 325 325 316 307 309 311 315 313 310 309 310 312 311 312 310 310 313 314 313 315 313 310 309 312 308 308 309 308 310 310 308 302
315 316 317 317 317 317 317 318 317 313 310 316 321 313 325 325 311 313 309 312 304 313 315 312 312 312 312 312 311 311 310 313 316 315 310 314 311 307 308 314 315 315 311 310 304 304 307
314 316 317 317 318 317 317 317 316 312 311 318 317 317 325 322 307 310 313 310 312 311 312 311 309 311 314 311 309 311 312 317 317 315 312 313 308 304 305 311 314 310 312 312 312 312 307
314 315 316 317 318 319 319 317 315 313 312 315 317 312 319 320 318 313 312 309 310 313 311 312 311 312 309 310 313 311 312 314 316 316 323 318 311 308 303 308 311 309 309 312 310 306 306
312 313 314 316 317 319 319 318 315 313 312 316 319 315 316 312 316 314 313 312 309 309 313 314 310 310 308 306 310 310 313 314 315 318 316 314 308 310 311 312 313 312 310 310 309 310 307
311 312 313 315 316 318 318 319 316 313 311 319 312 313 317 313 314 312 307 310 309 311 312 311 311 312 312 309 310 309 312 313 312 316 316 316 309 311 309 312 312 309 311 311 312 312 311
310 311 313 314 315 317 318 319 316 313 312 318 319 320 315 310 311 310 310 310 309 311 313 314 313 313 311 313 316 317 318 318 318 316 316 314 312 309 304 311 311 305 310 311 312 313 313
310 311 313 313 314 315 317 319 318 315 313 318 318 316 311 307 309 309 310 309 309 311 309 312 314 313 317 320 319 317 317 316 317 317 318 315 314 311 305 308 299 311 316 314 312 313 316
310 312 312 312 313 315 317 319 318 317 315 317 319 314 310 306 309 309 309 309 311 312 310 310 312 315 317 314 308 307 308 310 311 313 315 317 313 309 304 304 308 310 313 313 311 310 317
311 311 312 313 313 314 317 319 318 317 315 317 316 320 313 306 310 311 309 310 308 308 310 312 316 318 316 311 308 303 301 306 305 308 315 315 315 310 307 302 298 311 316 318 316 307 318
310 310 311 312 313 314 316 318 318 317 316 316 317 321 314 307 311 310 306 307 311 311 308 311 311 311 315 307 303 302 303 310 303 304 306 308 309 306 305 304 308 315 316 319 306 308 319
309 310 310 311 312 313 314 316 316 316 316 315 316 321 314 307 310 312 312 309 310 309 306 310 309 311 308 304 304 305 304 307 308 310 309 308 306 306 308 305 302 318 317 312 316 322 320
309 310 310 310 311 312 313 314 316 316 315 315 311 320 321 308 308 313 314 316 315 314 311 311 310 309 311 310 311 309 306 309 310 304 315 307 311 308 310 310 323 323 319 323 321 323 322
Wind_Speed
14 15 15 13 13 14 15 17 18 17 18 18 18 17 17 16 16 15 14 13 12 11 10 10 9 7 9 11 7 11 10 8 12 11 12 12 12 10 12 2 3 6 7 9 12 11 9
13 14 14 15 14 14 15 17 18 19 18 19 19 19 17 16 17 16 15 14 12 11 11 10 9 6 8 13 7 15 13 12 11 11 11 10 8 7 9 4 4 7 10 10 9 11 6
13 14 14 14 14 14 15 15 17 18 19 19 19 19 19 17 18 17 17 14 12 10 11 10 8 9 12 4 2 9 11 12 11 10 10 9 6 12 5 5 7 12 11 12 11 10 6
13 14 14 14 14 13 15 15 15 16 19 19 20 21 20 19 19 19 17 16 12 11 10 10 8 11 2 4 2 6 10 11 7 8 11 0 8 14 8 6 6 9 10 4 12 13 14
13 13 14 14 14 14 15 15 15 15 17 20 21 22 21 19 19 18 17 13 8 8 9 9 9 11 5 5 11 9 9 12 13 10 7 4 11 16 6 15 15 8 7 8 11 9 14
13 13 13 14 14 14 14 15 15 15 16 19 22 23 21 20 19 18 15 7 5 8 9 9 10 10 9 9 8 8 7 8 14 13 11 12 10 13 13 16 5 5 11 5 13 11 16
13 13 14 14 14 14 14 15 15 15 15 19 21 23 21 20 19 18 10 6 8 9 12 16 2 6 9 9 9 10 10 13 15 14 16 16 13 14 18 5 5 12 14 1 7 11 11
14 14 13 14 14 15 15 15 16 15 16 17 20 22 22 22 19 16 8 9 8 8 10 13 11 7 2 11 10 12 13 12 13 15 18 12 14 16 13 8 8 9 5 4 5 8 10
15 16 15 14 14 15 15 16 16 16 17 17 19 21 23 24 22 6 10 11 5 9 9 13 12 13 13 9 11 15 15 15 13 16 17 14 14 14 2 9 12 12 8 3 3 6 10
14 14 15 15 15 16 16 16 17 18 18 19 20 20 20 28 5 7 10 3 7 6 9 17 14 10 14 12 10 11 15 10 10 14 14 13 17 5 9 13 13 19 12 5 4 11 3
14 15 14 15 15 16 16 17 17 18 18 22 20 19 18 7 14 8 8 7 9 8 9 15 16 14 15 14 13 11 13 11 13 12 10 14 13 14 14 16 15 15 9 3 6 11 13
15 15 15 15 16 16 16 16 17 17 19 21 21 19 18 6 9 11 8 8 8 9 10 12 12 14 16 17 10 12 13 12 10 9 12 19 6 12 16 15 16 16 7 7 10 15 10
14 15 15 16 17 16 15 16 17 17 20 22 22 20 10 9 4 6 6 8 9 12 6 11 15 18 18 15 12 12 15 15 12 11 14 15 14 11 11 12 16 17 13 12 11 12 8
15 15 15 15 16 16 17 17 18 18 21 23 25 22 5 10 6 7 7 10 13 7 16 5 15 17 19 16 14 16 17 16 17 19 12 12 17 17 12 18 11 17 19 13 6 5 10
13 15 14 15 16 16 17 16 17 19 22 23 30 6 6 5 8 6 9 13 11 13 6 5 11 16 19 19 10 17 16 15 16 17 17 8 8 17 17 16 12 16 19 22 11 21 13
13 14 14 14 15 15 18 18 18 20 24 23 9 8 4 3 7 8 10 17 16 7 7 9 16 16 16 19 15 14 14 14 14 14 18 5 8 13 11 12 13 13 11 13 10 10 11
14 15 15 15 14 15 18 18 17 20 25 27 8 6 7 5 7 9 12 17 17 9 8 12 14 20 14 18 20 17 12 10 14 14 15 14 11 4 12 12 14 12 12 12 12 12 9
15 15 16 14 13 14 17 17 16 17 26 12 7 5 6 6 9 10 13 19 3 10 8 15 10 16 13 14 17 13 17 13 14 16 19 16 11 12 16 19 17 12 16 17 9 13 9
14 14 16 16 16 15 15 16 15 15 13 9 7 7 7 7 8 10 12 8 11 13 16 11 16 14 13 14 10 15 19 9 4 14 10 13 12 12 6 14 13 12 13 12 12 11 14
14 14 15 16 17 17 16 16 14 16 12 8 7 5 7 8 11 12 13 8 14 14 15 16 14 14 14 14 16 11 15 8 4 15 7 8 14 16 13 8 9 19 18 16 15 9 9
15 15 15 15 16 17 17 15 13 16 16 7 6 2 6 5 4 7 10 13 12 13 12 12 15 18 18 17 16 17 17 16 13 7 12 15 17 20 19 19 14 12 16 17 14 16 15
14 15 15 14 16 17 17 15 14 17 22 6 7 6 6 12 11 11 10 13 16 15 13 9 14 16 15 18 16 15 18 19 19 12 14 18 17 20 20 19 17 13 10 8 11 12 13
13 14 15 13 15 16 16 16 12 16 16 5 6 8 7 9 11 11 11 11 9 7 9 13 16 13 7 6 10 14 17 14 10 10 10 17 16 18 16 24 15 14 14 11 12 14 12
13 15 14 13 15 15 14 11 9 12 13 9 6 8 9 12 12 8 14 5 10 11 11 17 13 9 12 18 12 15 18 19 21 20 17 15 16 15 16 15 18 14 8 7 8 12 10
13 14 15 14 15 16 16 14 7 8 11 10 6 7 6 9 12 11 11 13 14 14 14 17 17 15 14 15 13 18 16 19 23 25 20 17 16 16 14 17 12 21 4 11 11 13 11
14 13 15 15 15 15 16 10 7 8 10 8 6 3 5 7 2 11 10 10 12 12 13 15 12 12 13 10 12 19 17 19 21 24 20 21 19 16 9 23 11 19 15 9 7 9 10
12 13 14 14 14 14 15 11 7 7 7 8 4 7 6 10 14 11 10 10 11 10 9 12 6 7 14 12 15 17 18 19 18 20 20 17 16 20 15 10 15 20 11 9 9 3 7
11 12 12 13 13 13 13 12 8 7 7 7 5 5 3 6 16 19 19 16 11 9 11 4 8 13 10 12 13 15 14 16 18 19 19 16 19 18 17 19 21 10 11 12 1 3 3
11 11 12 12 13 13 13 13 12 6 6 7 4 4 2 3 11 23 23 22 20 18 12 13 16 9 4 6 7 6 5 12 10 15 15 19 15 15 16 16 17 9 9 9 8 7 3
Wind_Direction
14 14 12 9 3 3 4 4 2 359 355 352 348 341 337 336 333 327 322 314 305 293 284 280 280 284 267 220 72 122 142 163 198 222 235 230 245 255 277 355 141 102 105 109 127 105 89
6 1 357 9 2 2 359 360 0 358 354 349 346 341 335 334 332 327 321 313 299 287 276 269 270 278 243 245 97 135 177 176 206 221 222 243 266 357 293 322 7 108 122 131 149 135 114
357 359 354 358 1 359 353 350 353 354 351 348 345 339 335 333 331 326 320 309 295 277 266 259 255 254 255 49 85 155 189 198 209 228 238 229 295 265 287 140 115 151 153 152 145 138 115
354 354 352 353 357 349 346 344 348 350 350 344 344 341 334 332 329 326 320 307 279 260 248 244 243 251 309 104 178 190 194 203 192 224 271 160 258 275 265 136 192 207 127 290 132 143 143
351 352 351 351 350 346 341 339 337 344 346 346 342 339 331 329 329 325 322 311 281 218 216 218 229 231 174 133 204 184 200 200 194 205 222 267 254 248 212 225 196 178 208 163 135 172 144
345 346 345 344 344 343 339 333 333 332 338 343 341 337 329 328 329 326 320 290 137 172 208 212 268 258 174 203 160 154 188 205 185 185 206 224 231 234 231 240 144 69 320 136 152 160 171
334 337 339 338 338 338 334 330 327 327 327 340 340 332 328 327 327 325 298 202 206 195 212 256 210 255 138 126 154 183 173 179 184 193 207 204 223 223 230 171 86 157 145 161 101 136 188
334 337 337 336 335 333 329 326 323 323 323 328 333 328 326 326 324 321 266 258 42 355 294 210 235 250 272 158 188 165 185 200 190 202 216 180 235 242 267 324 185 164 302 67 101 149 238
340 339 335 335 334 331 327 326 326 323 322 319 326 328 325 322 320 263 262 295 343 329 261 194 195 208 188 208 212 174 199 222 197 214 205 239 212 241 205 239 274 252 194 185 329 176 227
339 337 334 331 335 329 327 327 327 326 325 325 323 324 326 323 287 337 264 115 279 320 270 168 183 203 182 207 217 170 195 209 209 230 221 227 253 199 221 247 228 251 224 158 236 261 108
344 341 332 332 334 328 327 327 326 327 327 325 319 319 320 332 317 263 18 278 318 257 273 137 153 146 180 209 113 190 179 206 239 215 225 221 228 234 227 229 230 258 210 236 267 259 154
344 340 336 332 330 327 325 324 320 321 324 319 317 316 325 195 212 273 306 273 254 231 249 157 144 189 185 211 188 135 185 225 251 229 217 265 204 211 225 223 237 244 220 226 225 246 258
342 340 338 333 329 328 325 324 322 320 320 317 312 308 297 302 289 345 273 233 222 246 84 168 174 181 198 191 179 176 191 202 212 215 209 213 218 220 244 229 201 223 220 226 217 219 242
342 337 332 329 327 329 332 328 324 320 321 317 310 308 197 255 300 267 239 222 243 257 239 70 191 189 206 190 203 188 194 217 222 250 263 202 185 205 182 230 185 211 228 244 206 338 175
346 340 338 337 336 337 335 330 326 323 323 320 307 238 230 168 215 255 233 223 223 251 294 212 214 219 202 219 221 201 216 220 217 215 256 210 266 165 188 223 244 189 229 259 179 238 222
333 338 340 336 333 336 338 334 331 329 326 324 309 272 176 349 214 216 229 242 245 267 328 296 265 209 230 207 197 236 213 217 229 193 244 304 172 177 187 236 237 276 221 239 215 254 258
341 338 334 338 340 340 335 333 332 333 327 319 263 258 100 159 200 217 227 232 235 241 232 262 258 260 229 257 205 220 229 210 206 188 208 260 261 160 163 206 216 201 236 258 294 289 298
336 335 334 333 336 340 333 330 334 337 333 323 287 264 112 182 222 218 232 240 273 267 229 252 266 291 265 256 266 215 223 237 179 231 192 227 259 188 201 205 224 273 208 227 227 228 265
339 335 339 337 342 339 333 331 333 336 357 317 287 292 150 225 254 228 233 261 267 257 253 234 244 249 254 263 264 263 249 232 252 220 221 224 240 255 219 171 202 237 254 268 277 276 162
343 340 340 339 348 344 339 333 330 329 339 303 277 266 174 210 266 289 302 260 256 215 263 276 265 265 261 247 257 258 249 222 222 251 14 290 251 246 239 358 311 204 229 239 239 246 243
342 341 340 339 344 343 341 339 335 326 325 291 244 355 8 272 195 302 302 287 293 261 205 267 236 246 245 243 246 239 244 262 189 214 250 244 250 268 274 180 255 196 202 217 229 259 279
339 339 335 338 340 343 341 338 332 327 327 254 313 342 358 286 278 265 255 255 254 262 272 255 234 264 230 244 261 260 242 249 248 197 209 231 239 253 261 269 208 240 240 256 257 225 266
334 333 330 336 337 338 336 335 343 338 332 307 25 284 269 291 268 256 259 278 274 310 299 282 297 304 269 263 315 326 320 309 301 282 266 234 239 243 248 260 231 228 248 254 256 250 245
331 327 336 342 332 334 335 346 349 347 347 317 351 302 279 275 269 272 297 278 275 275 277 295 303 255 275 308 325 289 268 259 258 250 251 250 245 256 255 247 237 255 218 293 294 288 229
326 330 335 337 334 335 333 328 339 341 337 304 320 310 313 278 294 294 280 274 272 263 239 253 265 272 278 278 272 263 248 254 242 236 239 241 247 240 245 247 203 259 189 228 246 260 242
330 338 337 336 336 336 335 338 345 343 338 295 318 327 288 300 13 348 319 289 282 278 262 238 251 251 262 268 256 247 247 250 231 231 230 235 228 249 196 257 238 284 235 137 231 244 232
336 333 332 332 334 336 335 347 341 339 339 308 293 316 273 274 272 277 274 309 320 306 287 293 282 267 244 243 243 243 246 248 251 250 216 219 230 220 237 225 287 218 276 132 207 259 8
322 324 325 327 329 332 331 334 329 333 337 300 302 296 313 285 295 297 296 283 270 263 274 325 304 220 251 244 253 250 249 248 244 265 257 206 213 229 232 238 223 262 160 189 244 111 162
320 322 322 324 323 328 328 327 324 314 326 304 300 348 335 256 295 310 290 280 281 283 283 278 280 293 5 328 302 340 358 271 258 241 240 198 248 224 234 224 229 161 261 194 246 162 174